Roosevelt Roads, PR

8:03 AM AST on May 28, 2017 (GMT -0400)
Roosevelt Roads Ns

Weather History for TJNR - October, 2012

Change the Weather History Date:

Thursday, October 4, 2012

  Actual Average Record
Temperature  
Mean Temperature 82 °F -  
Max Temperature 89 °F 85 °F 91 °F (2015)
Min Temperature 75 °F 74 °F 75 °F (1996)
Cooling Degree Days 17    
Growing Degree Days 32 (Base 50)    
Moisture  
Dew Point 74 °F    
Average Humidity 75    
Maximum Humidity 91    
Minimum Humidity 63    
Precipitation  
Precipitation 0.03 in - - ()
Sea Level Pressure  
Sea Level Pressure 29.96 in    
Wind  
Wind Speed 7 mph (ENE)    
Max Wind Speed 13 mph    
Max Gust Speed 51 mph    
Visibility 10 miles    
Events Rain    
Averages and records for this station are not official NWS values.
T = Trace of Precipitation, MM = Missing Value Source: NWS Daily Summary

Daily Weather History Graph

Daily Weather History Graph

Search for Another Location

Airport or City:

Trip Planner

Search our weather history database for the weather conditions in past years. The results will help you decide how hot, cold, wet, or windy it might be!

Date:

Astronomy

Oct. 04, 2012 Rise Set
Actual Time 6:13 AM AST 6:08 PM AST
Civil Twilight 5:51 AM AST 6:30 PM AST
Nautical Twilight 5:26 AM AST 6:55 PM AST
Astronomical Twilight 5:01 AM AST 7:20 PM AST
Moon 9:18 PM AST (10/4) 9:50 AM AST (10/4)
Length of Visible Light 12h 38m
Length of Day
11h 54m
Waning Gibbous, 82% of the Moon is Illuminated
Oct 4
Waning Gibbous
Oct 8
Last Quarter
Oct 15
New
Oct 21
First Quarter
Oct 29
Full

Hourly Weather History & Observations

Time (AST) Temp. Heat Index Dew Point Humidity Pressure Visibility Wind Dir Wind Speed Gust Speed Precip Events Conditions
12:53 AM 81.0 °F 86.2 °F 73.9 °F 79% 30.01 in 10.0 mi East 6.9 mph - N/A   Partly Cloudy
1:53 AM 81.0 °F 86.2 °F 73.9 °F 79% 29.99 in 10.0 mi ENE 5.8 mph - N/A   Scattered Clouds
2:53 AM 75.9 °F - 73.0 °F 91% 29.99 in 10.0 mi Calm Calm - 0.00 in   Scattered Clouds
3:53 AM 75.9 °F - 73.0 °F 91% 29.98 in 10.0 mi Calm Calm - N/A   Scattered Clouds
4:53 AM 80.1 °F 84.5 °F 73.9 °F 81% 29.97 in 10.0 mi ENE 6.9 mph - N/A   Clear
5:53 AM 81.0 °F 86.2 °F 73.9 °F 79% 29.98 in 10.0 mi ENE 9.2 mph - N/A   Clear
6:27 AM 82.4 °F 88.2 °F 73.4 °F 74% 29.99 in 10.0 mi ENE 8.1 mph - N/A   Mostly Cloudy
6:35 AM 82.4 °F 88.2 °F 73.4 °F 74% 29.99 in 10.0 mi East 10.4 mph - N/A   Scattered Clouds
6:53 AM 82.9 °F 89.4 °F 73.9 °F 74% 29.99 in 10.0 mi ENE 9.2 mph - N/A   Partly Cloudy
7:53 AM 84.0 °F 91.2 °F 73.9 °F 72% 30.01 in 10.0 mi ENE 9.2 mph 50.6 mph N/A   Partly Cloudy
8:53 AM 86.0 °F 95.1 °F 75.0 °F 70% 30.02 in 10.0 mi ENE 9.2 mph - N/A   Clear
9:53 AM 87.1 °F 96.3 °F 75.0 °F 67% 30.02 in 10.0 mi ENE 9.2 mph - N/A   Partly Cloudy
10:53 AM 88.0 °F 98.5 °F 75.9 °F 67% 30.01 in 10.0 mi ENE 11.5 mph 18.4 mph N/A   Partly Cloudy
11:53 AM 89.1 °F 100.2 °F 75.9 °F 65% 29.99 in 10.0 mi NE 10.4 mph - N/A   Clear
12:53 PM 86.0 °F 93.0 °F 73.0 °F 65% 29.97 in 10.0 mi ENE 11.5 mph - N/A   Mostly Cloudy
1:53 PM 89.1 °F 99.1 °F 75.0 °F 63% 29.94 in 10.0 mi ENE 11.5 mph 17.3 mph N/A   Clear
2:53 PM 89.1 °F 100.2 °F 75.9 °F 65% 29.92 in 10.0 mi ENE 11.5 mph 16.1 mph N/A   Partly Cloudy
3:53 PM 87.1 °F 96.3 °F 75.0 °F 67% 29.92 in 10.0 mi ENE 8.1 mph - 0.00 in   Clear
4:53 PM 84.0 °F 91.2 °F 73.9 °F 72% 29.92 in 10.0 mi NE 9.2 mph - N/A   Scattered Clouds
5:53 PM 84.0 °F 91.2 °F 73.9 °F 72% 29.92 in 10.0 mi East 12.7 mph 18.4 mph N/A   Mostly Cloudy
6:06 PM 80.6 °F 86.2 °F 75.2 °F 84% 29.92 in 7.0 mi NE 4.6 mph - 0.00 in Rain Light Rain
6:53 PM 81.0 °F 86.2 °F 73.9 °F 79% 29.92 in 10.0 mi East 9.2 mph - 0.00 in   Clear
7:53 PM 82.9 °F 88.8 °F 73.0 °F 72% 29.93 in 10.0 mi NE 11.5 mph - N/A   Partly Cloudy
8:53 PM 82.9 °F 89.4 °F 73.9 °F 74% 29.94 in 10.0 mi ENE 10.4 mph - N/A   Mostly Cloudy
9:53 PM 80.1 °F 84.2 °F 73.0 °F 79% 29.94 in 10.0 mi NE 5.8 mph - 0.03 in   Scattered Clouds
10:27 PM 80.6 °F 85.4 °F 73.4 °F 79% 29.94 in 10.0 mi ENE 5.8 mph - N/A   Mostly Cloudy
10:49 PM 80.6 °F 86.2 °F 75.2 °F 84% 29.94 in 10.0 mi ENE 8.1 mph - 0.00 in   Mostly Cloudy
10:53 PM 81.0 °F 86.7 °F 75.0 °F 82% 29.94 in 10.0 mi ENE 6.9 mph - 0.00 in   Scattered Clouds
11:53 PM 79.0 °F - 73.0 °F 82% 29.93 in 10.0 mi East 3.5 mph - N/A   Scattered Clouds